N679DC KISP-ZZZZ

Flight info

Callsign N679DC
Flight time N/A
Altitude VFR
Route SVD VFF
Aircraft C172/L-DOV/C

Departure

Time 2026-04-21 20:12
Airport Long Island MacArthur Airport (KISP)

Arrival

Time N/A
Airport ZZZZ
Time Latitude Longitude Altitude Speed Heading
2026-04-21 20:04 40.78969 -73.09325 84 ft 0 kts 190°
2026-04-21 20:09 40.78973 -73.09340 87 ft 7 kts 350°
2026-04-21 20:09 40.79016 -73.09367 84 ft 6 kts 316°
2026-04-21 20:09 40.79043 -73.09401 85 ft 5 kts 315°
2026-04-21 20:09 40.79065 -73.09430 84 ft 7 kts 314°
2026-04-21 20:10 40.79112 -73.09493 84 ft 10 kts 316°
2026-04-21 20:10 40.79160 -73.09498 84 ft 8 kts 70°
2026-04-21 20:10 40.79195 -73.09457 83 ft 6 kts 35°
2026-04-21 20:10 40.79233 -73.09441 86 ft 5 kts 354°
2026-04-21 20:11 40.79258 -73.09465 84 ft 8 kts 316°
2026-04-21 20:11 40.79441 -73.09706 87 ft 66 kts 314°
2026-04-21 20:11 40.79861 -73.10212 175 ft 92 kts 311°
2026-04-21 20:11 40.80317 -73.10775 526 ft 78 kts 310°
2026-04-21 20:12 40.80748 -73.11430 590 ft 106 kts 306°
2026-04-21 20:12 40.81217 -73.12197 834 ft 107 kts 300°
2026-04-21 20:12 40.81651 -73.12988 1148 ft 107 kts 302°
2026-04-21 20:12 40.82099 -73.13780 1362 ft 108 kts 302°
2026-04-21 20:13 40.82573 -73.14619 1416 ft 121 kts 300°
2026-04-21 20:13 40.83090 -73.15545 1421 ft 128 kts 302°
2026-04-21 20:13 40.83632 -73.16494 1420 ft 131 kts 302°
2026-04-21 20:13 40.84192 -73.17461 1416 ft 134 kts 303°
2026-04-21 20:14 40.84770 -73.18441 1417 ft 136 kts 303°
2026-04-21 20:14 40.85360 -73.19413 1421 ft 136 kts 304°
2026-04-21 20:14 40.85895 -73.20435 1400 ft 129 kts 298°
2026-04-21 20:14 40.86360 -73.21399 1398 ft 123 kts 298°
2026-04-21 20:15 40.86810 -73.22350 1406 ft 121 kts 297°
2026-04-21 20:15 40.86944 -73.23370 1405 ft 111 kts 255°
2026-04-21 20:15 40.86840 -73.24369 1404 ft 111 kts 257°
2026-04-21 20:15 40.86725 -73.25370 1399 ft 109 kts 258°
2026-04-21 20:16 40.86618 -73.26360 1400 ft 109 kts 257°
2026-04-21 20:16 40.86515 -73.27349 1403 ft 108 kts 258°
2026-04-21 20:16 40.86407 -73.28342 1402 ft 111 kts 257°
2026-04-21 20:16 40.86310 -73.29356 1402 ft 111 kts 258°
2026-04-21 20:17 40.86203 -73.30367 1414 ft 112 kts 259°
2026-04-21 20:17 40.86059 -73.31364 1410 ft 110 kts 258°
2026-04-21 20:17 40.85933 -73.32358 1397 ft 109 kts 264°
2026-04-21 20:17 40.86263 -73.33228 1416 ft 110 kts 300°
2026-04-21 20:18 40.86148 -73.34107 1502 ft 98 kts 220°
2026-04-21 20:18 40.85483 -73.34134 1419 ft 108 kts 149°
2026-04-21 20:18 40.85201 -73.33245 1412 ft 115 kts 83°
2026-04-21 20:18 40.85711 -73.32473 1398 ft 117 kts 16°
2026-04-21 20:19 40.86439 -73.32740 1400 ft 110 kts 306°
2026-04-21 20:19 40.86552 -73.33665 1403 ft 103 kts 256°
2026-04-21 20:19 40.86428 -73.34608 1414 ft 109 kts 257°
2026-04-21 20:19 40.86288 -73.35634 1412 ft 117 kts 258°
2026-04-21 20:20 40.86142 -73.36711 1406 ft 121 kts 257°
2026-04-21 20:20 40.85997 -73.37803 1403 ft 121 kts 257°
2026-04-21 20:20 40.85848 -73.38902 1409 ft 123 kts 257°
2026-04-21 20:20 40.85697 -73.40039 1402 ft 127 kts 257°
2026-04-21 20:21 40.85548 -73.41172 1387 ft 125 kts 258°
2026-04-21 20:21 40.85385 -73.42304 1382 ft 125 kts 257°
2026-04-21 20:21 40.85224 -73.43418 1388 ft 123 kts 258°
2026-04-21 20:21 40.85057 -73.44526 1382 ft 122 kts 258°
2026-04-21 20:22 40.84900 -73.45627 1385 ft 122 kts 257°
2026-04-21 20:22 40.84598 -73.47831 1383 ft 121 kts 257°
2026-04-21 20:22 40.84455 -73.48914 1382 ft 119 kts 256°
2026-04-21 20:23 40.84313 -73.49986 1385 ft 118 kts 257°
2026-04-21 20:23 40.84175 -73.51061 1385 ft 119 kts 257°
2026-04-21 20:23 40.84023 -73.52138 1375 ft 119 kts 257°
2026-04-21 20:23 40.83869 -73.53211 1379 ft 119 kts 257°
2026-04-21 20:24 40.83712 -73.54282 1378 ft 119 kts 257°
2026-04-21 20:24 40.83555 -73.55362 1376 ft 120 kts 257°
2026-04-21 20:24 40.83399 -73.56441 1380 ft 119 kts 257°
2026-04-21 20:24 40.83244 -73.57517 1378 ft 120 kts 257°
2026-04-21 20:25 40.83092 -73.58587 1379 ft 120 kts 256°
2026-04-21 20:25 40.82656 -73.59470 1379 ft 116 kts 216°
2026-04-21 20:25 40.82026 -73.60128 1382 ft 115 kts 218°
2026-04-21 20:25 40.81393 -73.60782 1385 ft 116 kts 218°
2026-04-21 20:26 40.80758 -73.61435 1373 ft 114 kts 217°
2026-04-21 20:26 40.80137 -73.62084 1384 ft 113 kts 217°
2026-04-21 20:26 40.79527 -73.62737 1395 ft 113 kts 217°
2026-04-21 20:26 40.78914 -73.63397 1384 ft 113 kts 217°
2026-04-21 20:27 40.78296 -73.64060 1380 ft 115 kts 217°
2026-04-21 20:27 40.77692 -73.64710 1401 ft 112 kts 218°
2026-04-21 20:27 40.77092 -73.65363 1403 ft 110 kts 217°
2026-04-21 20:27 40.76501 -73.66012 1398 ft 112 kts 217°
2026-04-21 20:28 40.75891 -73.66666 1400 ft 114 kts 218°
2026-04-21 20:28 40.75272 -73.67322 1403 ft 114 kts 217°
2026-04-21 20:28 40.74658 -73.67982 1407 ft 113 kts 216°
2026-04-21 20:28 40.74053 -73.68649 1399 ft 114 kts 218°
2026-04-21 20:29 40.73432 -73.69306 1405 ft 116 kts 217°
2026-04-21 20:29 40.72815 -73.69979 1401 ft 114 kts 217°
2026-04-21 20:29 40.72217 -73.70644 1401 ft 114 kts 218°
2026-04-21 20:29 40.71604 -73.71304 1399 ft 113 kts 219°
2026-04-21 20:30 40.70994 -73.71956 1393 ft 112 kts 218°
2026-04-21 20:30 40.70383 -73.72601 1401 ft 113 kts 217°
2026-04-21 20:30 40.69792 -73.73264 1395 ft 111 kts 219°
2026-04-21 20:30 40.69190 -73.73914 1401 ft 113 kts 218°
2026-04-21 20:31 40.68586 -73.74566 1405 ft 111 kts 217°
2026-04-21 20:31 40.67989 -73.75224 1400 ft 113 kts 218°
2026-04-21 20:31 40.67375 -73.75887 1401 ft 114 kts 217°
2026-04-21 20:31 40.66768 -73.76562 1409 ft 116 kts 218°
2026-04-21 20:32 40.66144 -73.77241 1405 ft 117 kts 217°
2026-04-21 20:32 40.65524 -73.77920 1407 ft 115 kts 217°
2026-04-21 20:32 40.64926 -73.78590 1400 ft 113 kts 218°
2026-04-21 20:32 40.64328 -73.79270 1401 ft 115 kts 218°
2026-04-21 20:33 40.63705 -73.79961 1400 ft 118 kts 218°
2026-04-21 20:33 40.63076 -73.80648 1396 ft 117 kts 218°
2026-04-21 20:33 40.62463 -73.81328 1393 ft 115 kts 218°
2026-04-21 20:33 40.61847 -73.82001 1396 ft 117 kts 218°
2026-04-21 20:34 40.61209 -73.82678 1395 ft 118 kts 218°
2026-04-21 20:34 40.60572 -73.83358 1396 ft 117 kts 217°
2026-04-21 20:34 40.59942 -73.84035 1396 ft 116 kts 217°
2026-04-21 20:34 40.59333 -73.84717 1393 ft 115 kts 219°
2026-04-21 20:35 40.58707 -73.85388 1392 ft 117 kts 217°
2026-04-21 20:35 40.58088 -73.86065 1393 ft 115 kts 217°
2026-04-21 20:35 40.57467 -73.86742 1393 ft 116 kts 217°
2026-04-21 20:35 40.56845 -73.87417 1403 ft 117 kts 218°
2026-04-21 20:36 40.56334 -73.87982 1411 ft 120 kts 217°